Location: Waco, TX
(31.5480°N, 97.1670°W)
Time: 11:38:11
(UTC-05:00)

ISS - Pass Details

Date: 11 May 2021
Orbit: 417 x 422 km, 51.6° (Epoch: 15 May)

Event Time Altitude Azimuth Distance (km) Brightness Sun altitude
Rises 22:40:54 0° 223° (SW) 2,343 - -26.6°
Reaches altitude 10° 22:42:59 10° 223° (SW) 1,484 - -26.9°
Maximum altitude 22:46:19 87° 139° (SE) 420 - -27.4°
Drops below altitude 10° 22:49:40 10° 45° (NE) 1,494 - -27.9°
Sets 22:51:46 0° 45° (NE) 2,361 - -28.2°
